Find Explorer 29

NORAD ID: 1726 Int'l Des: 1965-089 Owner: GSFC Country: US operational
LEO

Live Position

Loading 3D Globe...

About Explorer 29

Description loading...

Upcoming Passes

Passes for default location (London). Set your location on the main map for personalized predictions.

Altitude History

Loading altitude history...

Two-Line Element Set

1 01726U 65089A 26106.28799856 -.00000047 00000-0 16701-3 0 9993
2 01726 59.3793 168.1900 0716319 180.2544 255.1907 11.97076058642252
Epoch: Apr 16, 2026 • Age: 14 hours

Current Status

Altitude 2268.8 km
Velocity 6.55 km/s
Sub-Earth Point 6.02°N, 16.95°E
Type other

Most Searched